London, United Kingdom

9:39 AM GMT on February 21, 2018 (GMT +0000)
Heathrow

Weather History for EGLL - May, 2013

Change the Weather History Date:

Wednesday, May 29, 2013

  Actual Average Record
Temperature  
Mean Temperature 50 °F -  
Max Temperature 55 °F 67 °F 77 °F (2003)
Min Temperature 45 °F 52 °F 39 °F (2007)
Degree Days  
Heating Degree Days 15    
Moisture  
Dew Point 48 °F    
Average Humidity 90    
Maximum Humidity 100    
Minimum Humidity 68    
Precipitation  
Precipitation 0.02 in - - ()
Sea Level Pressure  
Sea Level Pressure 29.67 in    
Wind  
Wind Speed 6 mph ()    
Max Wind Speed 9 mph    
Max Gust Speed -    
Visibility 6.7 miles    
Events Rain    
Averages and records for this station are not official NWS values.
T = Trace of Precipitation, MM = Missing Value Source: Averaged Metar Reports

Daily Weather History Graph

Daily Weather History Graph

Search for Another Location

Airport or City:

Trip Planner

Search our weather history database for the weather conditions in past years. The results will help you decide how hot, cold, wet, or windy it might be!

Date:

Astronomy

May. 29, 2013 Rise Set
Actual Time 4:52 AM BST 9:06 PM BST
Civil Twilight 4:08 AM BST 9:51 PM BST
Nautical Twilight 3:03 AM BST 10:56 PM BST
Astronomical Twilight 1:31 AM BST 12:26 AM BST
Moon 12:02 AM BST (5/29) 9:52 AM BST (5/29)
Length of Visible Light 17h 42m
Length of Day
16h 13m
Waning Gibbous, 75% of the Moon is Illuminated
May 29
Waning Gibbous
May 31
Last Quarter
Jun 8
New
Jun 16
First Quarter
Jun 23
Full

Hourly Weather History & Observations

Time (BST) Temp. Windchill Dew Point Humidity Pressure Visibility Wind Dir Wind Speed Gust Speed Precip Events Conditions
12:20 AM 48.2 °F - 46.4 °F 93% 29.56 in 6.2 mi WSW 5.8 mph - N/A   Scattered Clouds
12:50 AM 49 °F - 46 °F 83% 29.58 in 14 mi SW 5.8 mph - -   Scattered Clouds
12:50 AM 48.2 °F - 46.4 °F 93% 29.56 in 6.2 mi WSW 6.9 mph - N/A   Partly Cloudy
1:20 AM 48.2 °F - 46.4 °F 93% 29.56 in 6.2 mi WSW 6.9 mph - N/A   Scattered Clouds
1:50 AM 46.4 °F 43.5 °F 46.4 °F 100% 29.56 in 6.2 mi West 5.8 mph - N/A   Mostly Cloudy
2:20 AM 48.2 °F - 46.4 °F 93% 29.59 in 6.2 mi West 5.8 mph - N/A   Mostly Cloudy
2:50 AM 46.4 °F 43.5 °F 44.6 °F 93% 29.59 in 6.2 mi West 5.8 mph - N/A   Mostly Cloudy
3:20 AM 48.2 °F - 44.6 °F 87% 29.59 in 6.2 mi West 6.9 mph - N/A   Mostly Cloudy
3:50 AM 47 °F - 44 °F 84% 29.60 in 19 mi WSW 6.9 mph - -   Partly Cloudy
3:50 AM 46.4 °F 42.9 °F 44.6 °F 93% 29.59 in 6.2 mi WSW 6.9 mph - N/A   Mostly Cloudy
4:20 AM 46.4 °F 43.5 °F 44.6 °F 93% 29.59 in - West 5.8 mph - N/A   Clear
4:50 AM 44.6 °F 42.2 °F 44.6 °F 100% 29.59 in - West 4.6 mph - N/A   Clear
5:20 AM 44.6 °F 41.4 °F 42.8 °F 93% 29.59 in 6.2 mi WSW 5.8 mph - N/A   Partly Cloudy
5:50 AM 44.6 °F 41.4 °F 44.6 °F 100% 29.59 in 6.2 mi WSW 5.8 mph - N/A   Partly Cloudy
6:20 AM 44.6 °F 41.4 °F 42.8 °F 93% 29.59 in 6.2 mi West 5.8 mph - N/A   Partly Cloudy
6:50 AM 47 °F - 44 °F 86% 29.62 in 12 mi West 4.6 mph - -  
6:50 AM 46.4 °F 43.5 °F 44.6 °F 93% 29.62 in 6.2 mi WNW 5.8 mph - N/A   Partly Cloudy
7:20 AM 48.2 °F - 46.4 °F 93% 29.62 in 6.2 mi West 5.8 mph - N/A   Mostly Cloudy
7:50 AM 48.2 °F - 46.4 °F 93% 29.62 in 6.2 mi WNW 6.9 mph - N/A   Scattered Clouds
8:20 AM 50.0 °F - 46.4 °F 87% 29.62 in 6.2 mi NW 5.8 mph - N/A   Scattered Clouds
8:50 AM 51.8 °F - 46.4 °F 82% 29.65 in 6.2 mi NW 6.9 mph - N/A   Scattered Clouds
9:20 AM 51.8 °F - 46.4 °F 82% 29.65 in 6.2 mi WNW 6.9 mph - N/A   Scattered Clouds
9:50 AM 54 °F - 46 °F 68% 29.65 in 14 mi WNW 5.8 mph - -   Partly Cloudy
9:50 AM 53.6 °F - 48.2 °F 82% 29.65 in 6.2 mi WNW 5.8 mph - N/A   Scattered Clouds
10:20 AM 53.6 °F - 48.2 °F 82% 29.65 in 6.2 mi WNW 6.9 mph - N/A   Scattered Clouds
10:50 AM 55.4 °F - 48.2 °F 77% 29.65 in 6.2 mi NW 5.8 mph - N/A   Scattered Clouds
11:20 AM 55.4 °F - 48.2 °F 77% 29.65 in 6.2 mi WNW 6.9 mph - N/A   Scattered Clouds
11:50 AM 51.8 °F - 48.2 °F 88% 29.68 in 3.7 mi NNW 8.1 mph - N/A Rain Light Rain
12:20 PM 51.8 °F - 50.0 °F 94% 29.68 in 3.1 mi NNW 5.8 mph - N/A Rain Light Rain
12:50 PM 51 °F - 49 °F 88% 29.69 in 4 mi North 6.9 mph - - Rain Rain
12:50 PM 50.0 °F - 50.0 °F 100% 29.68 in 3.1 mi North 6.9 mph - N/A Rain Light Rain
1:20 PM 50.0 °F - 50.0 °F 100% 29.68 in 6.2 mi NW 6.9 mph - N/A   Mostly Cloudy
1:50 PM 50.0 °F - 48.2 °F 94% 29.68 in 6.2 mi NNW 6.9 mph - N/A Rain Light Rain
2:20 PM 51.8 °F - 50.0 °F 94% 29.71 in 6.2 mi NW 8.1 mph - N/A   Mostly Cloudy
2:50 PM 53.6 °F - 50.0 °F 88% 29.71 in 6.2 mi WNW 8.1 mph - N/A   Mostly Cloudy
3:20 PM 53.6 °F - 50.0 °F 88% 29.71 in 6.2 mi WNW 8.1 mph - N/A   Mostly Cloudy
3:50 PM 54 °F - 49 °F 79% 29.70 in 7 mi NW 8.1 mph - - Rain Rain
3:50 PM 53.6 °F - 50.0 °F 88% 29.71 in 6.2 mi NW 6.9 mph - N/A   Mostly Cloudy
4:20 PM 53.6 °F - 50.0 °F 88% 29.71 in 5.6 mi WNW 8.1 mph - N/A   Mostly Cloudy
4:50 PM 53.6 °F - 51.8 °F 94% 29.71 in 3.7 mi WNW 9.2 mph - N/A Rain Light Rain
5:20 PM 53.6 °F - 51.8 °F 94% 29.71 in 3.7 mi NW 6.9 mph - N/A Rain Light Rain
5:50 PM 53.6 °F - 51.8 °F 94% 29.71 in 3.7 mi NW 6.9 mph - N/A   Mostly Cloudy
6:20 PM 55.4 °F - 53.6 °F 94% 29.71 in 6.2 mi NNW 6.9 mph - N/A   Mostly Cloudy
6:50 PM 56 °F - 51 °F 79% 29.73 in 17 mi North 6.9 mph - -   Mostly Cloudy
6:50 PM 55.4 °F - 51.8 °F 88% 29.71 in 6.2 mi North 8.1 mph - N/A   Mostly Cloudy
7:20 PM 55.4 °F - 51.8 °F 88% 29.74 in 6.2 mi North 6.9 mph - N/A   Mostly Cloudy
7:50 PM 55.4 °F - 51.8 °F 88% 29.74 in 6.2 mi North 8.1 mph - N/A   Mostly Cloudy
8:20 PM 55.4 °F - 51.8 °F 88% 29.74 in 6.2 mi North 6.9 mph - N/A   Mostly Cloudy
8:50 PM 55.4 °F - 51.8 °F 88% 29.74 in 6.2 mi North 6.9 mph - N/A   Mostly Cloudy
9:20 PM 55.4 °F - 51.8 °F 88% 29.77 in 6.2 mi North 6.9 mph - N/A   Mostly Cloudy
9:50 PM 54 °F - 50 °F 82% 29.77 in 8 mi NNW 5.8 mph - -   Partly Cloudy
9:50 PM 53.6 °F - 51.8 °F 94% 29.77 in 6.2 mi NNW 5.8 mph - N/A   Scattered Clouds
10:20 PM 53.6 °F - 51.8 °F 94% 29.77 in 6.2 mi Variable 3.5 mph - N/A   Partly Cloudy
10:50 PM 53.6 °F - 51.8 °F 94% 29.77 in 5.6 mi NW 4.6 mph - N/A   Partly Cloudy
11:20 PM 53.6 °F - 51.8 °F 94% 29.77 in 5.0 mi NW 4.6 mph - N/A   Mostly Cloudy
11:50 PM 53.6 °F - 51.8 °F 94% 29.77 in 5.0 mi NW 4.6 mph - N/A   Mostly Cloudy